When you browse on this site, cookies collect data to enhance your experience and personalize the content and advertising you see.
Visit our Privacy Policy to learn more. By continuing to use the site, you agree to this use of cookies and data.
  • In Denmark
  • List of Countries
  • For 7 days
  • Water Temperature
  • Weather Map
  • Weather Widgets
  • user-avatar
    Login

    Hourly Weather Kabul

    Today, 23 August, Friday

    Time Temperature Precipitation Wind Pressure Humidity
    00:00 +24°C° 0 mm 1 mps 610 mmHg 37%
    01:00 +23°C° 0 mm 1 mps 610 mmHg 36%
    02:00 +22°C° 0 mm 1 mps 609 mmHg 36%
    03:00 +22°C° 0 mm 1 mps 609 mmHg 39%
    04:00 +21°C° 0 mm 1 mps 609 mmHg 41%
    05:00 +21°C° 0 mm 1 mps 609 mmHg 45%
    06:00 +20°C° 0.1 mm 0 mps 610 mmHg 41%
    07:00 +21°C° 0.1 mm 0 mps 611 mmHg 38%
    08:00 +22°C° 0.1 mm 0 mps 611 mmHg 34%
    09:00 +26°C° 0 mm 1 mps 612 mmHg 32%
    10:00 +27°C° 0 mm 1 mps 612 mmHg 29%
    11:00 +28°C° 0 mm 1 mps 612 mmHg 25%
    12:00 +29°C° 0 mm 1 mps 612 mmHg 22%
    13:00 +30°C° 0 mm 2 mps 612 mmHg 19%
    14:00 +31°C° 0 mm 2 mps 611 mmHg 16%
    15:00 +32°C° 0 mm 2 mps 611 mmHg 16%
    16:00 +33°C° 0 mm 3 mps 611 mmHg 16%
    17:00 +33°C° 0 mm 4 mps 611 mmHg 16%
    18:00 +31°C° 0 mm 3 mps 611 mmHg 19%
    19:00 +29°C° 0 mm 3 mps 611 mmHg 21%
    20:00 +28°C° 0 mm 3 mps 611 mmHg 23%
    21:00 +27°C° 0 mm 3 mps 611 mmHg 24%
    22:00 +26°C° 0 mm 2 mps 611 mmHg 24%
    23:00 +25°C° 0 mm 2 mps 611 mmHg 25%

    Tomorrow, 24 August, Saturday

    Time Temperature Precipitation Wind Pressure Humidity
    00:00 +24°C° 0 mm 2 mps 610 mmHg 26%
    01:00 +23°C° 0 mm 2 mps 610 mmHg 27%
    02:00 +22°C° 0 mm 1 mps 609 mmHg 28%
    03:00 +21°C° 0 mm 1 mps 609 mmHg 29%
    04:00 +21°C° 0 mm 1 mps 609 mmHg 31%
    05:00 +18°C° 0 mm 0 mps 609 mmHg 32%
    06:00 +19°C° 0 mm 0 mps 609 mmHg 29%
    07:00 +20°C° 0 mm 0 mps 610 mmHg 26%
    08:00 +22°C° 0 mm 0 mps 611 mmHg 23%
    09:00 +25°C° 0 mm 1 mps 611 mmHg 21%
    10:00 +27°C° 0 mm 1 mps 611 mmHg 19%
    11:00 +28°C° 0 mm 1 mps 612 mmHg 17%
    12:00 +29°C° 0 mm 1 mps 612 mmHg 16%
    13:00 +30°C° 0 mm 1 mps 611 mmHg 15%
    14:00 +31°C° 0 mm 2 mps 611 mmHg 14%
    15:00 +31°C° 0 mm 2 mps 611 mmHg 14%
    16:00 +31°C° 0 mm 2 mps 611 mmHg 14%
    17:00 +33°C° 0 mm 3 mps 611 mmHg 14%
    18:00 +30°C° 0 mm 3 mps 611 mmHg 18%
    19:00 +29°C° 0 mm 3 mps 610 mmHg 22%
    20:00 +27°C° 0 mm 3 mps 610 mmHg 26%
    21:00 +26°C° 0 mm 2 mps 610 mmHg 27%
    22:00 +25°C° 0 mm 2 mps 610 mmHg 28%
    23:00 +24°C° 0 mm 1 mps 610 mmHg 29%

    Day after tomorrow, 25 August, Sunday

    Time Temperature Precipitation Wind Pressure Humidity
    00:00 +23°C° 0 mm 1 mps 609 mmHg 30%
    01:00 +23°C° 0 mm 1 mps 609 mmHg 31%
    02:00 +22°C° 0 mm 1 mps 608 mmHg 31%
    03:00 +19°C° 0 mm 0 mps 608 mmHg 33%
    04:00 +19°C° 0 mm 0 mps 608 mmHg 34%
    05:00 +18°C° 0 mm 0 mps 608 mmHg 35%
    06:00 +20°C° 0 mm 0 mps 609 mmHg 32%
    07:00 +21°C° 0 mm 0 mps 609 mmHg 28%
    08:00 +22°C° 0 mm 0 mps 610 mmHg 25%
    09:00 +26°C° 0 mm 1 mps 610 mmHg 24%
    10:00 +27°C° 0 mm 1 mps 611 mmHg 22%
    11:00 +29°C° 0 mm 1 mps 611 mmHg 21%
    12:00 +30°C° 0 mm 1 mps 611 mmHg 19%
    13:00 +31°C° 0 mm 2 mps 611 mmHg 17%
    14:00 +32°C° 0 mm 2 mps 611 mmHg 15%
    15:00 +33°C° 0 mm 3 mps 611 mmHg 15%
    16:00 +33°C° 0 mm 4 mps 611 mmHg 16%
    17:00 +33°C° 0 mm 5 mps 611 mmHg 17%
    18:00 +32°C° 0 mm 4 mps 611 mmHg 23%
    19:00 +29°C° 0 mm 3 mps 611 mmHg 29%
    20:00 +27°C° 0 mm 1 mps 611 mmHg 35%
    21:00 +27°C° 0 mm 1 mps 611 mmHg 37%
    22:00 +26°C° 0 mm 1 mps 611 mmHg 38%
    23:00 +25°C° 0 mm 1 mps 611 mmHg 39%

    26 August, Monday

    Time Temperature Precipitation Wind Pressure Humidity
    00:00 +25°C° 0 mm 1 mps 610 mmHg 40%
    01:00 +24°C° 0 mm 1 mps 610 mmHg 41%
    02:00 +21°C° 0 mm 0 mps 609 mmHg 41%
    03:00 +21°C° 0 mm 0 mps 609 mmHg 42%
    04:00 +20°C° 0 mm 0 mps 609 mmHg 43%
    05:00 +20°C° 0 mm 0 mps 609 mmHg 44%
    06:00 +21°C° 0 mm 0 mps 610 mmHg 40%
    07:00 +22°C° 0 mm 0 mps 610 mmHg 37%
    08:00 +23°C° 0 mm 0 mps 611 mmHg 33%
    09:00 +27°C° 0 mm 1 mps 612 mmHg 30%
    10:00 +28°C° 0 mm 1 mps 612 mmHg 27%
    11:00 +29°C° 0 mm 1 mps 612 mmHg 24%
    12:00 +30°C° 0 mm 1 mps 612 mmHg 22%
    13:00 +31°C° 0 mm 2 mps 612 mmHg 20%
    14:00 +32°C° 0 mm 2 mps 612 mmHg 18%
    15:00 +33°C° 0 mm 3 mps 612 mmHg 17%
    16:00 +33°C° 0 mm 3 mps 612 mmHg 17%
    17:00 +34°C° 0 mm 3 mps 612 mmHg 16%
    18:00 +31°C° 0 mm 3 mps 612 mmHg 19%
    19:00 +30°C° 0 mm 3 mps 612 mmHg 22%
    20:00 +28°C° 0 mm 3 mps 611 mmHg 25%
    21:00 +27°C° 0 mm 2 mps 611 mmHg 28%
    22:00 +26°C° 0 mm 2 mps 611 mmHg 30%
    23:00 +25°C° 0 mm 2 mps 611 mmHg 33%

    27 August, Tuesday

    Time Temperature Precipitation Wind Pressure Humidity
    00:00 +24°C° 0 mm 1 mps 611 mmHg 31%
    01:00 +23°C° 0 mm 1 mps 610 mmHg 30%
    02:00 +22°C° 0 mm 1 mps 609 mmHg 28%
    03:00 +22°C° 0 mm 1 mps 609 mmHg 28%
    04:00 +21°C° 0 mm 1 mps 609 mmHg 28%
    05:00 +21°C° 0 mm 1 mps 609 mmHg 27%
    06:00 +22°C° 0 mm 1 mps 610 mmHg 24%
    07:00 +23°C° 0 mm 1 mps 610 mmHg 21%
    08:00 +25°C° 0 mm 1 mps 611 mmHg 18%
    09:00 +26°C° 0 mm 1 mps 612 mmHg 16%
    10:00 +28°C° 0 mm 2 mps 612 mmHg 15%
    11:00 +29°C° 0 mm 2 mps 612 mmHg 13%
    12:00 +30°C° 0 mm 2 mps 612 mmHg 12%
    13:00 +31°C° 0 mm 3 mps 612 mmHg 10%
    14:00 +34°C° 0 mm 3 mps 612 mmHg 9%
    15:00 +33°C° 0 mm 4 mps 612 mmHg 9%
    16:00 +33°C° 0 mm 5 mps 612 mmHg 9%
    17:00 +33°C° 0 mm 5 mps 611 mmHg 9%
    18:00 +30°C° 0 mm 4 mps 611 mmHg 10%
    19:00 +28°C° 0 mm 4 mps 611 mmHg 12%
    20:00 +26°C° 0 mm 3 mps 611 mmHg 14%
    21:00 +25°C° 0 mm 2 mps 611 mmHg 16%
    22:00 +24°C° 0 mm 2 mps 610 mmHg 18%
    23:00 +23°C° 0 mm 1 mps 610 mmHg 19%

    28 August, Wednesday

    Time Temperature Precipitation Wind Pressure Humidity
    00:00 +22°C° 0 mm 1 mps 610 mmHg 20%
    01:00 +21°C° 0 mm 1 mps 610 mmHg 21%
    02:00 +20°C° 0 mm 1 mps 609 mmHg 21%
    03:00 +20°C° 0 mm 1 mps 609 mmHg 22%
    04:00 +19°C° 0 mm 1 mps 609 mmHg 23%
    05:00 +17°C° 0 mm 0 mps 608 mmHg 23%
    06:00 +18°C° 0 mm 0 mps 609 mmHg 21%
    07:00 +20°C° 0 mm 0 mps 610 mmHg 18%
    08:00 +21°C° 0 mm 0 mps 611 mmHg 15%
    09:00 +25°C° 0 mm 1 mps 612 mmHg 14%
    10:00 +27°C° 0 mm 1 mps 612 mmHg 13%
    11:00 +28°C° 0 mm 1 mps 612 mmHg 11%
    12:00 +30°C° 0 mm 1 mps 612 mmHg 10%
    13:00 +31°C° 0 mm 1 mps 612 mmHg 9%
    14:00 +32°C° 0 mm 2 mps 612 mmHg 9%
    15:00 +32°C° 0 mm 2 mps 612 mmHg 8%
    16:00 +32°C° 0 mm 2 mps 612 mmHg 8%
    17:00 +34°C° 0 mm 2 mps 612 mmHg 8%
    18:00 +31°C° 0 mm 2 mps 611 mmHg 10%
    19:00 +29°C° 0 mm 2 mps 611 mmHg 12%
    20:00 +28°C° 0 mm 2 mps 611 mmHg 14%
    21:00 +26°C° 0 mm 2 mps 611 mmHg 16%
    22:00 +25°C° 0 mm 1 mps 611 mmHg 17%
    23:00 +24°C° 0 mm 1 mps 610 mmHg 19%
    Show more